Weather History for Waukesha, WI

Change the Weather History Date:

Tuesday, December 18, 2012

  Actual Average Record
Temperature  
Mean Temperature 28 °F -  
Max Temperature 32 °F 30 °F 53 °F (2002)
Min Temperature 23 °F 17 °F -14 °F (1983)
Degree Days  
Heating Degree Days 38    
Moisture  
Dew Point 27 °F    
Average Humidity 95    
Maximum Humidity 100    
Minimum Humidity 86    
Precipitation  
Precipitation 0.00 in - - ()
Sea Level Pressure  
Sea Level Pressure 29.72 in    
Wind  
Wind Speed 4 mph (NW)    
Max Wind Speed 9 mph    
Max Gust Speed -    
Visibility 5 miles    
Events Snow    
Averages and records for this station are not official NWS values.
T = Trace of Precipitation, MM = Missing Value Source: NWS Daily Summary

Daily Weather History Graph

Daily Weather History Graph

Search for Another Location

Airport:

Trip Planner

Search our weather history database for the weather conditions in past years. The results will help you decide how hot, cold, wet, or windy it might be!

Date:

Astronomy

Dec. 18, 2012 Rise Set
Actual Time 7:19 AM CST 4:20 PM CST
Civil Twilight 6:47 AM CST 4:52 PM CST
Nautical Twilight 6:11 AM CST 5:28 PM CST
Astronomical Twilight 5:36 AM CST 6:02 PM CST
Moon 10:51 AM CST (12/18) 10:55 PM CST (12/18)
Length of Visible Light 10h 05m
Length of Day
9h 00m
Waxing Crescent, 35% of the Moon is Illuminated
Dec 18
Waxing Crescent
Dec 19
First Quarter
Dec 28
Full
Jan 4
Last Quarter
Jan 11
New

Hourly Weather History & Observations

Time (CST) Temp. Windchill Dew Point Humidity Pressure Visibility Wind Dir Wind Speed Gust Speed Precip Events Conditions
12:15 AM 26.6 °F - 23.0 °F 86% 29.73 in 10.0 mi Calm Calm - N/A   Overcast
12:35 AM 26.6 °F - 23.0 °F 86% 29.73 in 10.0 mi Calm Calm - N/A   Overcast
12:55 AM 26.6 °F - 23.0 °F 86% 29.74 in 10.0 mi Calm Calm - N/A   Overcast
1:15 AM 26.6 °F 22.6 °F 23.0 °F 86% 29.74 in 10.0 mi WSW 3.5 mph - N/A   Overcast
1:35 AM 26.6 °F - 23.0 °F 86% 29.74 in 10.0 mi Calm Calm - N/A   Overcast
1:55 AM 26.6 °F - 23.0 °F 86% 29.74 in 10.0 mi Calm Calm - N/A   Overcast
2:15 AM 26.6 °F - 23.0 °F 86% 29.74 in 10.0 mi Calm Calm - N/A   Overcast
2:35 AM 26.6 °F 22.6 °F 23.0 °F 86% 29.73 in 10.0 mi WSW 3.5 mph - N/A   Overcast
2:55 AM 26.6 °F 21.2 °F 23.0 °F 86% 29.74 in 10.0 mi WSW 4.6 mph - N/A   Overcast
3:15 AM 26.6 °F 21.2 °F 23.0 °F 86% 29.73 in 10.0 mi West 4.6 mph - N/A   Overcast
3:35 AM 26.6 °F 21.2 °F 23.0 °F 86% 29.73 in 10.0 mi WSW 4.6 mph - N/A   Overcast
3:55 AM 26.6 °F 22.6 °F 23.0 °F 86% 29.73 in 10.0 mi WSW 3.5 mph - N/A   Overcast
4:15 AM 24.8 °F - 23.0 °F 93% 29.72 in 10.0 mi Calm Calm - N/A   Overcast
4:35 AM 23.0 °F - 23.0 °F 100% 29.72 in 10.0 mi Calm Calm - N/A   Mostly Cloudy
5:45 AM 24.8 °F 15.3 °F 23.0 °F 93% 29.74 in 7.0 mi SW 9.2 mph - N/A   Overcast
6:45 AM 24.8 °F 16.9 °F 23.0 °F 93% 29.74 in 5.0 mi WSW 6.9 mph - N/A   Overcast
7:45 AM 24.8 °F 17.9 °F 23.0 °F 93% 29.74 in 5.0 mi SW 5.8 mph - N/A   Overcast
8:45 AM 26.6 °F 17.5 °F 24.8 °F 93% 29.73 in 4.0 mi SSE 9.2 mph - N/A   Overcast
9:45 AM 26.6 °F 17.5 °F 24.8 °F 93% 29.74 in 3.0 mi SE 9.2 mph - N/A   Overcast
10:45 AM 28.4 °F 21.2 °F 24.8 °F 86% 29.72 in 5.0 mi SE 6.9 mph - N/A   Overcast
11:45 AM 28.4 °F 19.7 °F 26.6 °F 93% 29.68 in 1.0 mi SE 9.2 mph - N/A Snow Light Snow
12:45 PM 28.4 °F 20.4 °F 28.4 °F 100% 29.65 in 1.0 mi ESE 8.1 mph - N/A Snow Light Snow
1:05 PM 28.4 °F 21.2 °F 28.4 °F 100% 29.63 in 0.8 mi ESE 6.9 mph - N/A Snow Light Snow
1:45 PM 28.4 °F 22.2 °F 28.4 °F 100% 29.63 in 1.0 mi ENE 5.8 mph - N/A Snow Light Snow
2:45 PM 28.4 °F 21.2 °F 28.4 °F 100% 29.63 in 1.0 mi NE 6.9 mph - N/A Snow Light Snow
3:00 PM 28.4 °F 21.2 °F 28.4 °F 100% 29.63 in 1.0 mi ENE 6.9 mph - N/A Snow Light Snow
3:19 PM 28.4 °F 24.6 °F 28.4 °F 100% 29.63 in 0.5 mi ENE 3.5 mph - N/A Snow Snow
3:45 PM 28.4 °F 23.3 °F 28.4 °F 100% 29.64 in 0.5 mi NE 4.6 mph - N/A Snow Light Snow
4:45 PM 28.4 °F 22.2 °F 28.4 °F 100% 29.64 in 1.2 mi ENE 5.8 mph - N/A Snow Light Snow
5:45 PM 30.2 °F 24.3 °F 30.2 °F 100% 29.66 in 2.5 mi NE 5.8 mph - N/A   Overcast
6:45 PM 30.2 °F 25.4 °F 30.2 °F 100% 29.66 in 2.0 mi NNE 4.6 mph - N/A   Overcast
7:45 PM 30.2 °F 26.7 °F 30.2 °F 100% 29.68 in 2.0 mi North 3.5 mph - N/A   Overcast
8:15 PM 32.0 °F 27.5 °F 32.0 °F 100% 29.70 in 2.0 mi NW 4.6 mph - N/A   Overcast
8:35 PM 32.0 °F 25.6 °F 32.0 °F 100% 29.72 in 2.5 mi NW 6.9 mph - N/A   Overcast
8:45 PM 30.2 °F 24.3 °F 30.2 °F 100% 29.72 in 2.0 mi WNW 5.8 mph - N/A   Light Freezing Rain
8:55 PM 32.0 °F 24.8 °F 32.0 °F 100% 29.73 in 1.8 mi NW 8.1 mph - N/A   Drizzle
9:15 PM 32.0 °F 25.6 °F 32.0 °F 100% 29.74 in 2.0 mi WNW 6.9 mph - N/A   Light Drizzle
9:35 PM 30.2 °F 23.4 °F 30.2 °F 100% 29.75 in 2.0 mi WNW 6.9 mph - N/A   Overcast
9:55 PM 30.2 °F 22.6 °F 30.2 °F 100% 29.75 in 3.0 mi NW 8.1 mph - N/A   Overcast
10:15 PM 30.2 °F 22.6 °F 30.2 °F 100% 29.76 in 3.0 mi NW 8.1 mph - N/A   Overcast
10:35 PM 30.2 °F 23.4 °F 30.2 °F 100% 29.77 in 3.0 mi NW 6.9 mph - N/A   Overcast
10:55 PM 30.2 °F 24.3 °F 30.2 °F 100% 29.78 in 4.0 mi WNW 5.8 mph - N/A   Overcast
11:15 PM 30.2 °F 22.6 °F 30.2 °F 100% 29.79 in 4.0 mi NW 8.1 mph - N/A   Overcast
11:35 PM 30.2 °F 21.9 °F 30.2 °F 100% 29.80 in 3.0 mi WNW 9.2 mph - N/A   Overcast
11:55 PM 30.2 °F 21.9 °F 30.2 °F 100% 29.82 in 3.0 mi WNW 9.2 mph - N/A   Overcast